This is the latest recevied weather packets stored in our database for station/object W4SKW. If no packets are shown the sender has not sent any weather packets the latest 10 day(s).
| Time | Temp. | Humidity | Pressure | Rain* | Wind** | Luminosity | Snow |
|---|---|---|---|---|---|---|---|
| 1777750061 | 18.89° C | 39% | 1015.8 hPa | 0 mm | - | 412 W/m² | - |
| 1777749758 | 18.89° C | 39% | 1015.7 hPa | 0 mm | - | 453 W/m² | - |
| 1777749455 | 18.89° C | 40% | 1015.9 hPa | 0 mm | - | 468 W/m² | - |
| 1777749153 | 17.78° C | 41% | 1015.8 hPa | 0 mm | - | 605 W/m² | - |
| 1777748850 | 17.78° C | 47% | 1015.7 hPa | 0 mm | - | 408 W/m² | - |
| 1777748548 | 18.89° C | 37% | 1015.9 hPa | 0 mm | - | 439 W/m² | - |
| 1777748247 | 18.89° C | 37% | 1015.9 hPa | 0 mm | - | 439 W/m² | - |
| 1777747944 | 18.89° C | 38% | 1015.9 hPa | 0 mm | - | 461 W/m² | - |
| 1777747640 | 18.33° C | 39% | 1015.8 hPa | 0 mm | - | 761 W/m² | - |
| 1777747336 | 19.44° C | 36% | 1015.9 hPa | 0 mm | - | 459 W/m² | - |
| 1777747033 | 18.89° C | 39% | 1015.9 hPa | 0 mm | - | 805 W/m² | - |
| 1777746729 | 18.89° C | 43% | 1015.9 hPa | 0 mm | - | 572 W/m² | - |
| 1777746424 | 18.89° C | 36% | 1015.6 hPa | 0 mm | - | 519 W/m² | - |
| 1777746120 | 18.89° C | 40% | 1016 hPa | 0 mm | - | 502 W/m² | - |
| 1777745817 | 18.33° C | 39% | 1015.8 hPa | 0 mm | - | 610 W/m² | - |
| 1777745516 | 18.89° C | 42% | 1016 hPa | 0 mm | - | 583 W/m² | - |
| 1777745213 | 18.33° C | 42% | 1015.8 hPa | 0 mm | - | 809 W/m² | - |
| 1777744910 | 18.33° C | 41% | 1016 hPa | 0 mm | - | 851 W/m² | - |
| 1777744609 | 18.33° C | 41% | 1016 hPa | 0 mm | - | 851 W/m² | - |
| 1777744305 | 18.33° C | 39% | 1016 hPa | 0 mm | - | 708 W/m² | - |
| 1777744002 | 18.33° C | 42% | 1015.9 hPa | 0 mm | - | 556 W/m² | - |
| 1777743698 | 17.78° C | 42% | 1016 hPa | 0 mm | - | 548 W/m² | - |
| 1777743396 | 17.78° C | 41% | 1016 hPa | 0 mm | - | 469 W/m² | - |
| 1777743094 | 18.33° C | 40% | 1015.8 hPa | 0 mm | - | 874 W/m² | - |
| 1777742791 | 17.78° C | 42% | 1015.9 hPa | 0 mm | - | 684 W/m² | - |
* Rain latest hour (hover to see other rain measurements)
** Current wind speed in m/s (hover to see current wind gust speed)